Location: Voyageurs National Park
(48.5020°N, 92.9292°W)
Time: 23:42:22
(UTC-06:00)

PCSat - Visible Passes

Search period start: 21 December 2014 00:00
Search period end: 31 December 2014 00:00
Orbit: 786 x 796 km, 67.1° (Epoch: 21 December)

Date Brightness Start Highest point End Pass type
(mag) Time Alt. Az. Time Alt. Az. Time Alt. Az.
21 Dec 11.7 17:14:55 10° NW 17:17:27 13° NNW 17:19:59 10° N visible
21 Dec 11.9 19:01:46 10° N 19:02:43 11° N 19:02:43 11° N visible
22 Dec 11.8 18:31:05 10° N 18:32:23 11° N 18:32:55 11° N visible
23 Dec 11.8 18:00:13 10° N 18:01:18 11° N 18:02:24 10° NNE visible
23 Dec 12.0 19:43:28 10° NNW 19:43:51 11° NNW 19:43:51 11° NNW visible
24 Dec 11.7 17:29:03 10° NNW 17:30:14 11° N 17:31:25 10° N visible
24 Dec 11.8 19:12:56 10° NNW 19:14:04 13° N 19:14:04 13° N visible
25 Dec 11.7 16:57:40 10° NNW 16:59:10 11° N 17:00:40 10° N visible
25 Dec 11.6 18:42:24 10° N 18:44:18 13° N 18:44:18 13° N visible
26 Dec 11.5 18:11:51 10° N 18:14:06 12° NNE 18:14:34 12° NNE visible
26 Dec 12.0 19:54:34 10° NNW 19:55:18 13° NNW 19:55:18 13° NNW visible
27 Dec 11.6 17:41:16 10° N 17:43:03 12° N 17:44:51 10° NNE visible
27 Dec 11.6 19:24:01 10° NNW 19:25:36 17° N 19:25:36 17° N visible
28 Dec 11.6 17:10:37 10° N 17:12:00 11° N 17:13:22 10° NNE visible
28 Dec 11.3 18:53:29 10° NNW 18:55:55 19° N 18:55:55 19° N visible
28 Dec 12.3 20:36:26 10° NNW 20:36:40 11° NNW 20:36:40 11° NNW visible
29 Dec 11.2 18:22:56 10° NNW 18:26:18 18° NNE 18:26:18 18° NNE visible
29 Dec 11.8 20:05:48 10° NNW 20:07:02 17° NNW 20:07:02 17° NNW visible
30 Dec 11.2 17:52:24 10° NNW 17:55:43 16° NNE 17:56:43 15° NE visible
30 Dec 11.2 19:35:12 10° NNW 19:37:28 24° NNW 19:37:28 24° NNW visible
